Regional Weather Roundup
Issued by NWS

Current Version | Previous Version | Text Only | Print | Product List | Glossary On
Versions: 1 2 3 4 5 6 7 8 9 10 11 12 13 14 15 16 17 18 19 20 21 22 23 24 25 26 27 28 29 30 31 32 33 34 35 36 37 38 39 40 41 42 43 44 45 46 47 48 49 50
000
ASUS44 KFWD 231815
RWRTX
NORTH TEXAS HOURLY WEATHER ROUNDUP
NATIONAL WEATHER SERVICE FORT WORTH TX
1200 PM CST THU NOV 23 2017

NOTE: "FAIR" INDICATES FEW OR NO CLOUDS BELOW 12,000 FEET WITH NO
SIGNIFICANT WEATHER AND/OR OBSTRUCTIONS TO VISIBILITY.

TXZ118-119-231900-
DALLAS/FORT WORTH METROPLEX

CITY           SKY/WX    TMP DP  RH WIND       PRES   REMARKS
DFW AIRPORT    MOSUNNY   62  24  23 S6        30.14F
6HR MIN TEMP:  35; 6HR MAX TEMP:  62;

DALLAS LOVE    MOSUNNY   61  22  22 VRB3      30.15F
6HR MIN TEMP:  37; 6HR MAX TEMP:  61;

FTW MEACHAM    SUNNY     64  29  26 S6        30.13F
6HR MIN TEMP:  37; 6HR MAX TEMP:  64;

DAL-EXECUTIVE  SUNNY     61  25  25 CALM      30.14F
6HR MIN TEMP:  35; 6HR MAX TEMP:  61;

FTW-ALLIANCE   MOSUNNY   64  28  25 S8        30.13F
6HR MIN TEMP:  28; 6HR MAX TEMP:  64;

FTW-NAS-JRB    SUNNY     65  28  24 SE7       30.14F
6HR MIN TEMP:  37; 6HR MAX TEMP:  65;

FTW-SPINKS     SUNNY     64  28  25 SW6       30.17F
ARLINGTON      SUNNY     61  27  27 SE8       30.15F
6HR MIN TEMP:  30; 6HR MAX TEMP:  61;

GRAND PRAIRIE  SUNNY     61  27  27 S7        30.17F
ADDISON        SUNNY     57  25  28 SE6       30.16F
MESQUITE       SUNNY     57  25  28 S5        30.17F
LANCASTER      SUNNY     59  25  26 SW5       30.17F
6HR MIN TEMP:  31; 6HR MAX TEMP:  59;

$$

TXZ091>094-102>105-117-120-121-131>134-231900-
NORTH CENTRAL TEXAS

CITY           SKY/WX    TMP DP  RH WIND       PRES   REMARKS
SHRMAN/DENISON SUNNY     62  26  25 S8        30.13F
6HR MIN TEMP:  30; 6HR MAX TEMP:  62;

GAINESVILLE    SUNNY     65  27  23 SE5       30.13F
6HR MIN TEMP:  31; 6HR MAX TEMP:  65;

BOWIE          SUNNY     65  29  26 SW5       30.11F
6HR MIN TEMP:  31; 6HR MAX TEMP:  65;

BRIDGEPORT     SUNNY     66  29  25 W6        30.13F
6HR MIN TEMP:  28; 6HR MAX TEMP:  66;

DECATUR        SUNNY     64  28  26 S7        30.11F
6HR MIN TEMP:  40; 6HR MAX TEMP:  64;

DENTON         SUNNY     64  29  26 S6        30.13F
6HR MIN TEMP:  28; 6HR MAX TEMP:  64;

MCKINNEY       SUNNY     59  26  28 CALM      30.15F
6HR MIN TEMP:  29; 6HR MAX TEMP:  59;

BONHAM         SUNNY     58  26  28 S7        30.15F
6HR MIN TEMP:  27; 6HR MAX TEMP:  58;

GREENVILLE     SUNNY     61  25  25 CALM      30.17F
ROCKWALL       SUNNY     58  28  31 SW5       30.17F
6HR MIN TEMP:  35; 6HR MAX TEMP:  58;

TERRELL        SUNNY     59  24  26 CALM      30.17F
6HR MIN TEMP:  30; 6HR MAX TEMP:  59;

WAXAHACHIE     SUNNY     61  28  28 SW3       30.18F
6HR MIN TEMP:  32; 6HR MAX TEMP:  61;

CLEBURNE       SUNNY     63  27  25 SW8       30.16F
GRANBURY       SUNNY     67  30  24 S3        30.15F
6HR MIN TEMP:  30; 6HR MAX TEMP:  67;

$$

TXZ083>090-098>101-113>116-127>130-139>142-154-155-231900-
WESTERN NORTH TEXAS

CITY           SKY/WX    TMP DP  RH WIND       PRES   REMARKS
WICHITA FALLS  SUNNY     59  30  33 S6        30.11F
6HR MIN TEMP:  30; 6HR MAX TEMP:  59;

WF-KICKAPOO    SUNNY     58  31  35 CALM      30.14F
6HR MIN TEMP:  33; 6HR MAX TEMP:  58;

VERNON         SUNNY     62  22  22 CALM      30.11F
6HR MIN TEMP:  31; 6HR MAX TEMP:  90;

ABILENE        SUNNY     68  33  27 VRB5      30.14F
6HR MIN TEMP:  39; 6HR MAX TEMP:  68;

ABILENE-DYESS  SUNNY     68  35  30 W6        30.13F
6HR MIN TEMP:  32; 6HR MAX TEMP:  68;

GRAHAM           N/A     65  32  28 CALM      30.11F
6HR MIN TEMP:  29; 6HR MAX TEMP:  65;

BRECKENRIDGE   SUNNY     68  29  23 W6        30.13F HAZE
6HR MIN TEMP:  37; 6HR MAX TEMP:  69;

CISCO          SUNNY     66  28  24 SW8       30.15F
EASTLAND       SUNNY     67  29  24 CALM      30.14F
6HR MIN TEMP:  26; 6HR MAX TEMP:  68;

RANGER         SUNNY     67  30  25 SW7       30.14F
6HR MIN TEMP:  34; 6HR MAX TEMP:  85;

MINERAL WELLS  SUNNY     66  28  24 SE5       30.12F
6HR MIN TEMP:  30; 6HR MAX TEMP:  66;

STEPHENVILLE   SUNNY     67  27  22 W7        30.17F
6HR MIN TEMP:  33; 6HR MAX TEMP:  67;

COMANCHE       SUNNY     67  30  25 SW7       30.15F
6HR MIN TEMP:  35; 6HR MAX TEMP:  67;

BROWNWOOD      SUNNY     64  27  24 W8        30.16F
COLEMAN        SUNNY     66  28  23 SW9       30.15F
6HR MIN TEMP:  34; 6HR MAX TEMP:  66;

$$

TXZ143>147-156>162-174-175-231900-
CENTRAL TEXAS

CITY           SKY/WX    TMP DP  RH WIND       PRES   REMARKS
WACO           SUNNY     59  26  28 SE6       30.17F
6HR MIN TEMP:  30; 6HR MAX TEMP:  59;

WACO-TSTC      SUNNY     59  25  27 CALM      30.17F
WACO-MCGREGOR  SUNNY     63  28  26 VRB3      30.16F
6HR MIN TEMP:  30; 6HR MAX TEMP:  63;

HILLSBORO      SUNNY     60  28  29 S3        30.16F
6HR MIN TEMP:  33; 6HR MAX TEMP:  60;

CORSICANA      SUNNY     59  25  27 CALM      30.18F
6HR MIN TEMP:  33; 6HR MAX TEMP:  59;

MEXIA          SUNNY     58  24  27 N3        30.17F
6HR MIN TEMP:  33; 6HR MAX TEMP:  58;

HEARNE         SUNNY     58  29  33 CALM      30.20F
6HR MIN TEMP:  29; 6HR MAX TEMP:  58;

CAMERON        SUNNY     59  26  27 CALM      30.18F
6HR MIN TEMP:  33; 6HR MAX TEMP:  60;

TEMPLE         SUNNY     62  26  25 VRB3      30.18F
6HR MIN TEMP:  28; 6HR MAX TEMP:  63;

KILLEEN        SUNNY     65  24  21 SW8       30.15F
6HR MIN TEMP:  34; 6HR MAX TEMP:  65;

KILLEEN-SKYLRK SUNNY     63  28  26 SE5       30.17F
6HR MIN TEMP:  33; 6HR MAX TEMP:  63;

FORT HOOD      SUNNY     63  26  24 CALM      30.13F
6HR MIN TEMP:  35; 6HR MAX TEMP:  63;

GATESVILLE     SUNNY     64  27  24 CALM      30.17F
HAMILTON       SUNNY     68  28  22 W7        30.16F
6HR MIN TEMP:  37; 6HR MAX TEMP:  68;

LAMPASAS       SUNNY     64  28  26 W5        30.15F
6HR MIN TEMP:  31; 6HR MAX TEMP:  64;

$$

TXZ095>097-106>112-122>126-135>138-148>153-164>167-231900-
EAST TEXAS

CITY           SKY/WX    TMP DP  RH WIND       PRES   REMARKS
PARIS          SUNNY     57  27  31 VRB5      30.16F
6HR MIN TEMP:  31; 6HR MAX TEMP:  57;

SULPHUR SPRNGS SUNNY     57  26  30 CALM      30.18F
6HR MIN TEMP:  33; 6HR MAX TEMP:  57;

MOUNT PLEASANT SUNNY     55  29  37 CALM      30.18F
6HR MIN TEMP:  28; 6HR MAX TEMP:  55;

GILMER         MOSUNNY   55  29  38 CALM      30.16F
6HR MIN TEMP:  30; 6HR MAX TEMP:  55;

MINEOLA        SUNNY     57  28  33 N5        30.17F
TYLER          SUNNY     57  22  25 VRB3      30.16F
6HR MIN TEMP:  33; 6HR MAX TEMP:  58;

LONGVIEW       SUNNY     56  33  42 W3        30.16F
6HR MIN TEMP:  31; 6HR MAX TEMP:  56;

MARSHALL       SUNNY     53  25  33 CALM      30.19F
6HR MIN TEMP:  30; 6HR MAX TEMP:  53;

ATHENS         SUNNY     54  23  30 CALM      30.16F
PALESTINE      SUNNY     58  29  33 CALM      30.18F
JACKSONVILLE   SUNNY     56  32  40 CALM      30.18F
HENDERSON      SUNNY     56  31  37 CALM      30.17F
6HR MIN TEMP:  30; 6HR MAX TEMP:  56;

CENTER         CLEAR     55  27  34 CALM      30.18F
6HR MIN TEMP:  30; 6HR MAX TEMP:  55;

NACOGDOCHES    SUNNY     56  31  38 MISG      30.17F
6HR MIN TEMP:  28; 6HR MAX TEMP:  56;

LUFKIN         SUNNY     57  32  38 CALM      30.17F
6HR MIN TEMP:  33; 6HR MAX TEMP:  57;

$$

SUPPLEMENTAL OBSERVATIONS (NWS



USA.gov is the U.S. government's official web portal to all federal, state and local government web resources and services.